Flag for Malaysia Weather past 2 weeks in Kuala Lumpur, Malaysia

91 °F

Dense fog.

Feels Like: 103 °F
Forecast: 77 / 90 °F
Wind: 8 mph from Southeast

Location: Sultan Abdul Aziz Shah-Subang

Current Time: Oct 4, 2015 at 1:57:00 PM

Latest Report: Oct 4, 2015 at 1:00 PM

Visibility: 1 mi

Pressure: 29.89 "Hg

Humidity: 59%

Dew point: 75 °F

Location of Kuala LumpurLocation

Historic Weather in Kuala Lumpur — Graph


Kuala Lumpur temperature yesterday

Maximum temperature yesterday: 90 °F (at 1:00 PM)
Minimum temperature yesterday: 77 °F (at 7:00 AM)
Average temperature yesterday: 83 °F

Past Weeks' High & Low Weather Summary

High97 °F (Sep 19, 4:00 PM)94% (Sep 21, 2:00 AM)29.98 "Hg (Sep 21, 2:00 AM)
Low73 °F (Sep 23, 7:00 AM)50% (Sep 19, 2:00 PM)29.71 "Hg (Sep 26, 5:00 PM)
Average82 °F81%29.85 "Hg
* Reported Sep 19 1:00 PM — Oct 4 1:00 PM, Kuala Lumpur, Weather by CustomWeather, © 2015

Note: Actual official high and low records may vary slightly from our data, if they occured in-between our weather recording intervals... More about our weather records


Kuala Lumpur weather history for previous 24 hours

Time TempWeatherWind HumidityBarometerVisibility
1:00 PM
Sun, Oct 4
91 °FDense fog.8 mph59%29.89 "Hg1 mi
12:00 PM90 °FDense fog.7 mph63%29.92 "Hg1 mi
11:00 AM88 °FDense fog.7 mph66%29.92 "Hg1 mi
10:00 AM86 °FDense fog.6 mph75%29.95 "Hg1 mi
9:00 AM81 °FDense fog.No wind89%29.92 "Hg1 mi
8:00 AM77 °FDense fog.No wind94%29.92 "Hg0 mi
7:00 AM79 °FDense fog.No wind89%29.89 "Hg0 mi
5:00 AM79 °FDense fog.No wind94%29.89 "Hg0 mi
4:00 AM79 °FDense fog.1 mph94%29.89 "Hg0 mi
3:00 AM81 °FDense fog.No wind89%29.89 "Hg0 mi
2:00 AM81 °FDense fog.1 mph89%29.89 "Hg0 mi
1:00 AM82 °FDense fog.1 mph84%29.92 "Hg1 mi
12:00 AM82 °FDense fog.1 mph84%29.95 "Hg1 mi
11:00 PM
Sat, Oct 3
82 °FDense fog.1 mph84%29.92 "Hg1 mi
10:00 PM84 °FDense fog.2 mph79%29.92 "Hg1 mi
9:00 PM84 °FDense fog.3 mph79%29.89 "Hg1 mi
8:00 PM86 °FDense fog.7 mph75%29.86 "Hg1 mi
7:00 PM86 °FDense fog.7 mph75%29.83 "Hg1 mi
6:00 PM90 °FDense fog.7 mph63%29.83 "Hg1 mi
5:00 PM90 °FDense fog.7 mph67%29.83 "Hg1 mi
4:00 PM90 °FDense fog.7 mph67%29.83 "Hg1 mi
3:00 PM90 °FDense fog.7 mph63%29.83 "Hg1 mi
2:00 PM90 °FDense fog.9 mph63%29.86 "Hg1 mi
1:00 PM90 °FDense fog.6 mph63%29.89 "Hg1 mi
Weather by CustomWeather, © 2015

See weather overviewHow to use our weather pages